| time (UTC) | temp F | wind direction | speed MPH | gust MPH | rain 1hr in | rain 24hr in | rain mn in | humidity % | barometer mb |
| 20260509223029 | 57 | 219 | 3.0 | 5.0 | 0.00 | 0.00 | 0.00 | 50 | 1023.5 |
| 20260509221531 | 56 | 232 | 2.0 | 5.0 | 0.00 | 0.00 | 0.00 | 51 | 1023.6 |
| 20260509220030 | 55 | 200 | 1.0 | 3.0 | 0.00 | 0.00 | 0.00 | 52 | 1023.5 |
| 20260509214531 | 55 | 0 | 0.0 | 0.0 | 0.00 | 0.00 | 0.00 | 51 | 1023.5 |
| 20260509213030 | 55 | 194 | 0.0 | 2.0 | 0.00 | 0.00 | 0.00 | 51 | 1023.4 |
| 20260509211529 | 56 | 0 | 0.0 | 2.0 | 0.00 | 0.00 | 0.00 | 50 | 1023.3 |
| 20260509210030 | 56 | 215 | 1.0 | 3.0 | 0.00 | 0.00 | 0.00 | 50 | 1023.1 |
| 20260509204529 | 55 | 186 | 1.0 | 2.0 | 0.00 | 0.00 | 0.00 | 52 | 1022.9 |
| 20260509203034 | 54 | 186 | 0.0 | 2.0 | 0.00 | 0.00 | 0.00 | 52 | 1022.8 |
| 20260509201529 | 54 | 0 | 0.0 | 0.0 | 0.00 | 0.00 | 0.00 | 51 | 1022.9 |
| 20260509200028 | 56 | 0 | 0.0 | 2.0 | 0.00 | 0.00 | 0.00 | 49 | 1022.9 |
| 20260509194529 | 56 | 186 | 1.0 | 4.0 | 0.00 | 0.00 | 0.00 | 48 | 1022.8 |
| 20260509193029 | 56 | 183 | 1.0 | 3.0 | 0.00 | 0.00 | 0.00 | 49 | 1022.7 |
| 20260509191532 | 56 | 175 | 2.0 | 5.0 | 0.00 | 0.00 | 0.00 | 49 | 1022.7 |
| 20260509190030 | 55 | 211 | 3.0 | 4.0 | 0.00 | 0.00 | 0.00 | 49 | 1022.8 |
| 20260509184542 | 56 | 329 | 1.0 | 4.0 | 0.00 | 0.00 | 0.00 | 48 | 1023.0 |
| 20260509183027 | 57 | 330 | 2.0 | 4.0 | 0.00 | 0.00 | 0.00 | 47 | 1023.0 |
| 20260509181529 | 57 | 318 | 2.0 | 6.0 | 0.00 | 0.00 | 0.00 | 47 | 1022.9 |
| 20260509180039 | 57 | 316 | 2.0 | 6.0 | 0.00 | 0.00 | 0.00 | 46 | 1023.1 |
| 20260509174530 | 57 | 315 | 2.0 | 4.0 | 0.00 | 0.00 | 0.00 | 46 | 1023.2 |
| 20260509173037 | 57 | 190 | 1.0 | 5.0 | 0.00 | 0.00 | 0.00 | 46 | 1023.2 |
| 20260509171528 | 56 | 327 | 2.0 | 4.0 | 0.00 | 0.00 | 0.00 | 48 | 1023.1 |
| 20260509170045 | 52 | 171 | 0.0 | 2.0 | 0.00 | 0.00 | 0.00 | 52 | 1023.2 |
| 20260509164531 | 52 | 0 | 0.0 | 0.0 | 0.00 | 0.00 | 0.00 | 52 | 1023.1 |
| 20260509163027 | 52 | 0 | 0.0 | 0.0 | 0.00 | 0.00 | 0.00 | 51 | 1023.0 |
| 20260509161527 | 53 | 0 | 0.0 | 0.0 | 0.00 | 0.00 | 0.00 | 49 | 1023.0 |
| 20260509160028 | 55 | 0 | 0.0 | 0.0 | 0.00 | 0.00 | 0.00 | 47 | 1023.0 |
| 20260509154531 | 56 | 0 | 0.0 | 1.0 | 0.00 | 0.00 | 0.00 | 45 | 1023.1 |
| 20260509153032 | 58 | 0 | 0.0 | 2.0 | 0.00 | 0.00 | 0.00 | 43 | 1023.4 |
| 20260509151528 | 58 | 172 | 1.0 | 3.0 | 0.00 | 0.00 | 0.00 | 43 | 1023.5 |
| 20260509150030 | 59 | 172 | 1.0 | 2.0 | 0.00 | 0.00 | 0.00 | 43 | 1023.5 |
| 20260509144532 | 58 | 171 | 1.0 | 4.0 | 0.00 | 0.00 | 0.00 | 43 | 1023.6 |
| 20260509143030 | 57 | 0 | 0.0 | 0.0 | 0.00 | 0.00 | 0.00 | 44 | 1023.8 |
| 20260509141539 | 59 | 0 | 0.0 | 1.0 | 0.00 | 0.00 | 0.00 | 42 | 1023.9 |
| 20260509140028 | 60 | 0 | 0.0 | 1.0 | 0.00 | 0.00 | 0.00 | 40 | 1023.9 |
| 20260509134532 | 62 | 171 | 1.0 | 4.0 | 0.00 | 0.00 | 0.00 | 39 | 1023.8 |
| 20260509133428 | 61 | 171 | 1.0 | 4.0 | 0.00 | 0.00 | 0.00 | 39 | 1023.8 |
| 20260509131608 | 62 | 171 | 0.0 | 4.0 | 0.00 | 0.00 | 0.00 | 39 | 1023.7 |
| 20260509131538 | 62 | 171 | 0.0 | 4.0 | 0.00 | 0.00 | 0.00 | 39 | 1023.7 |
| 20260509130041 | 62 | 171 | 0.0 | 2.0 | 0.00 | 0.00 | 0.00 | 39 | 1023.5 |
| 20260509124530 | 62 | 171 | 0.0 | 1.0 | 0.00 | 0.00 | 0.00 | 38 | 1023.1 |
| 20260509123032 | 63 | 0 | 0.0 | 2.0 | 0.00 | 0.00 | 0.00 | 38 | 1023.1 |
| 20260509121531 | 64 | 171 | 1.0 | 3.0 | 0.00 | 0.00 | 0.00 | 37 | 1023.1 |
| 20260509120028 | 65 | 172 | 1.0 | 4.0 | 0.00 | 0.00 | 0.00 | 36 | 1022.9 |
| 20260509114534 | 67 | 220 | 2.0 | 4.0 | 0.00 | 0.00 | 0.00 | 35 | 1022.9 |
| 20260509113030 | 67 | 244 | 3.0 | 4.0 | 0.00 | 0.00 | 0.00 | 34 | 1022.8 |
| 20260509111530 | 68 | 211 | 2.0 | 3.0 | 0.00 | 0.00 | 0.00 | 34 | 1022.8 |
| 20260509110028 | 68 | 211 | 1.0 | 3.0 | 0.00 | 0.00 | 0.00 | 35 | 1022.5 |
| 20260509104528 | 67 | 194 | 1.0 | 2.0 | 0.00 | 0.00 | 0.00 | 36 | 1022.5 |
| 20260509103028 | 66 | 0 | 0.0 | 0.0 | 0.00 | 0.00 | 0.00 | 41 | 1022.5 |
| 20260509101533 | 69 | 0 | 0.0 | 0.0 | 0.00 | 0.00 | 0.00 | 50 | 1022.4 |
| 20260509100033 | 71 | 0 | 0.0 | 0.0 | 0.00 | 0.00 | 0.00 | 44 | 1022.4 |
| 20260509094533 | 74 | 0 | 0.0 | 0.0 | 0.00 | 0.00 | 0.00 | 30 | 1022.3 |
| 20260509093030 | 75 | 167 | 2.0 | 4.0 | 0.00 | 0.00 | 0.00 | 29 | 1022.1 |
| 20260509091530 | 76 | 165 | 2.0 | 5.0 | 0.00 | 0.00 | 0.00 | 28 | 1022.1 |
| 20260509090040 | 77 | 161 | 2.0 | 5.0 | 0.00 | 0.00 | 0.00 | 28 | 1022.1 |
| 20260509084530 | 78 | 332 | 3.0 | 7.0 | 0.00 | 0.00 | 0.00 | 28 | 1022.0 |
| 20260509083030 | 78 | 179 | 3.0 | 9.0 | 0.00 | 0.00 | 0.00 | 28 | 1022.1 |
| 20260509081546 | 78 | 163 | 2.0 | 6.0 | 0.00 | 0.00 | 0.00 | 27 | 1021.9 |
| 20260509080311 | 79 | 189 | 2.0 | 6.0 | 0.00 | 0.00 | 0.00 | 28 | 1021.8 |
| 20260509070040 | 81 | 309 | 2.0 | 10.0 | 0.00 | 0.00 | 0.00 | 26 | 1021.6 |
| 20260509064533 | 82 | 155 | 3.0 | 10.0 | 0.00 | 0.00 | 0.00 | 26 | 1021.6 |
| 20260509063052 | 82 | 53 | 5.0 | 9.0 | 0.00 | 0.00 | 0.00 | 25 | 1021.4 |
| 20260509061545 | 83 | 49 | 6.0 | 12.0 | 0.00 | 0.00 | 0.00 | 25 | 1021.3 |
| 20260509060047 | 82 | 225 | 5.0 | 11.0 | 0.00 | 0.00 | 0.00 | 25 | 1021.4 |
| 20260509054530 | 83 | 315 | 4.0 | 8.0 | 0.00 | 0.00 | 0.00 | 25 | 1021.5 |
| 20260509053032 | 82 | 205 | 2.0 | 12.0 | 0.00 | 0.00 | 0.00 | 26 | 1021.6 |
| 20260509051530 | 83 | 331 | 4.0 | 6.0 | 0.00 | 0.00 | 0.00 | 26 | 1021.6 |
| 20260509050032 | 82 | 317 | 3.0 | 9.0 | 0.00 | 0.00 | 0.00 | 26 | 1021.8 |
| 20260509044530 | 82 | 323 | 3.0 | 9.0 | 0.00 | 0.00 | 0.00 | 27 | 1022.0 |
| 20260509043033 | 81 | 184 | 3.0 | 9.0 | 0.00 | 0.00 | 0.00 | 28 | 1022.1 |
| 20260509041528 | 80 | 321 | 6.0 | 11.0 | 0.00 | 0.00 | 0.00 | 29 | 1022.5 |
| 20260509040032 | 79 | 345 | 6.0 | 13.0 | 0.00 | 0.00 | 0.00 | 30 | 1022.7 |
| 20260509034530 | 78 | 323 | 7.0 | 15.0 | 0.00 | 0.00 | 0.00 | 30 | 1023.0 |
| 20260509033028 | 78 | 201 | 5.0 | 12.0 | 0.00 | 0.00 | 0.00 | 31 | 1023.3 |
| 20260509031534 | 76 | 311 | 7.0 | 14.0 | 0.00 | 0.00 | 0.00 | 32 | 1023.7 |
| 20260509030029 | 75 | 316 | 7.0 | 13.0 | 0.00 | 0.00 | 0.00 | 33 | 1023.9 |
| 20260509024530 | 74 | 312 | 7.0 | 14.0 | 0.00 | 0.00 | 0.00 | 34 | 1024.1 |
| 20260509023028 | 73 | 306 | 5.0 | 12.0 | 0.00 | 0.00 | 0.00 | 35 | 1024.3 |
| 20260509021528 | 72 | 340 | 7.0 | 14.0 | 0.00 | 0.00 | 0.00 | 36 | 1024.4 |
| 20260509020046 | 71 | 300 | 7.0 | 16.0 | 0.00 | 0.00 | 0.00 | 37 | 1024.7 |
| 20260509014542 | 70 | 307 | 8.0 | 18.0 | 0.00 | 0.00 | 0.00 | 38 | 1024.7 |
| 20260509013036 | 69 | 321 | 9.0 | 14.0 | 0.00 | 0.00 | 0.00 | 39 | 1024.8 |
| 20260509011530 | 68 | 289 | 5.0 | 12.0 | 0.00 | 0.00 | 0.00 | 41 | 1025.0 |
| 20260509010027 | 67 | 347 | 6.0 | 15.0 | 0.00 | 0.00 | 0.00 | 42 | 1025.1 |
| 20260509004528 | 65 | 333 | 8.0 | 18.0 | 0.00 | 0.00 | 0.00 | 44 | 1025.1 |
| 20260509003039 | 64 | 324 | 7.0 | 13.0 | 0.00 | 0.00 | 0.00 | 47 | 1025.2 |
| 20260509001528 | 62 | 355 | 7.0 | 16.0 | 0.00 | 0.00 | 0.00 | 48 | 1025.2 |
| 20260509000030 | 61 | 340 | 7.0 | 13.0 | 0.00 | 0.00 | 0.00 | 51 | 1025.0 |
| 20260508234549 | 59 | 336 | 5.0 | 10.0 | 0.00 | 0.00 | 0.00 | 52 | 1025.1 |
| 20260508233031 | 58 | 335 | 5.0 | 10.0 | 0.00 | 0.00 | 0.00 | 53 | 1025.0 |
| 20260508231530 | 58 | 342 | 5.0 | 9.0 | 0.00 | 0.00 | 0.00 | 54 | 1024.7 |
| 20260508230409 | 58 | 327 | 4.0 | 12.0 | 0.00 | 0.00 | 0.00 | 53 | 1024.6 |
| 20260508224558 | 58 | 327 | 5.0 | 10.0 | 0.00 | 0.00 | 0.00 | 53 | 1024.5 |